sat.trackr.live / text

‹ back to catalog

STARLINK-5039

NORAD 57247 · 2023-094AF

PAYLOAD ACTIVE UNKNOWN

§ Identity

Operator
Country
US
Launch date
2023-07-07
Launch site
AFWTR
Launch vehicle
Mass (kg)
RCS (m²)

Purposes: comms

External: N2YO · Heavens-Above · Gunter

§ Orbital elements

Epoch: 2026-09-20T06:38:19.395168Z

Period
94.27 min
Inclination
43.0039°
Eccentricity
0.0001675
Mean motion
15.27577278 rev/d
Perigee alt
481.9 km
Apogee alt
484.2 km
Semi-major
6,861.2 km
B*
1.2120e-5
RAAN
0.6094°
Arg perigee
266.8059°
Mean anomaly
93.2601°
Rev number
17,700

§ Raw data

STARLINK-50391 57247U 23094AF  26263.27661337  .00000071  00000+0  12120-4 0  99942 57247  43.0039   0.6094 0001675 266.8059  93.2601 15.27577278177007

JSON: /api/v1/satellites/57247 · /tle

For live sub-satellite position, see the globe view (requires WebGL).

§ Visibility from observer

Set your observer location to see the next 7 days of passes ≥ 10°. The values pass through the URL so the page stays shareable.

No JS? Fill the form by hand. The geolocation button needs JavaScript.